Regional Weather Roundup
Issued by NWS

Home | Current Version | Previous Version | Graphics & Text | Print | Product List | Glossary On
Versions: 1 2 3 4 5 6 7 8 9 10 11 12 13 14 15 16 17 18 19 20 21 22 23 24 25 26 27 28 29 30 31 32 33 34 35 36 37 38 39 40 41 42 43 44 45 46 47 48 49 50
000
ASUS43 KMKX 271100
RWRWI

WISCONSIN REGIONAL WEATHER ROUNDUP
NATIONAL WEATHER SERVICE MILWAUKEE/SULLIVAN WI
600 AM CDT THU APR 27 2017

NOTE: "FAIR" INDICATES FEW OR NO CLOUDS BELOW 12,000 FEET WITH NO
SIGNIFICANT WEATHER AND/OR OBSTRUCTIONS TO VISIBILITY.

WIZ001-002-006>008-014>016-023>028-271200-
NORTHWEST WISCONSIN

CITY           SKY/WX    TMP DP  RH WIND       PRES   REMARKS
SUPERIOR ARPT  CLOUDY    26  23  89 CALM      29.58S
ASHLAND        CLOUDY    27  25  92 N9        29.53F WCI  18
HAYWARD        FLURRIES  28  24  85 N7        29.49F WCI  21
SIREN          CLOUDY    29  26  91 N8        29.53F WCI  21
CUMBERLAND     CLOUDY    30  27  86 N10       29.49F WCI  21
RICE LAKE      CLOUDY    31  28  88 NW6       29.50F WCI  25
CHETEK         CLOUDY    32  29  88 NW6       29.48F WCI  26
LADYSMITH      CLOUDY    31  27  86 N13       29.46F WCI  21
EAU CLAIRE     CLOUDY    33  27  78 N8        29.46F WCI  26
MENOMONIE      CLOUDY    34  29  83 NW10      29.48F WCI  26
NEW RICHMOND   CLOUDY    32  28  85 N10       29.51F WCI  24
OSCEOLA        LGT SNOW  32  32  99 N7        29.55F WCI  26
$$

WIZ003>005-009-010-017-018-271200-
NORTH CENTRAL WISCONSIN

CITY           SKY/WX    TMP DP  RH WIND       PRES   REMARKS
MANITOWISH WTR MIX PCPN  27  27 100 N9        29.44F WCI  17
ARBOR VITAE    MIX PCPN  32  29  91 N13       29.41F WCI  22
WOODRUFF       MIX PCPN  32  29  91 N13       29.41F WCI  22
RHINELANDER    FRZ RAIN  31  29  92 N7        29.40F FOG     WCI  24
EAGLE RIVER    MIX PCPN  29  28  96 N8        29.41F WCI  21
LAND O LAKES   LGT SNOW  28  27  94 N9        29.44F WCI  20
PHILLIPS       CLOUDY    28  25  91 N9        29.43F WCI  19
TOMAHAWK       LGT SNOW  29  28  93 N8        29.41F WCI  21
MEDFORD        MIX PCPN  30  28  93 N12       29.40F WCI  21
MERRILL        MIX PCPN  32  31  98 N12       29.40F WCI  23
$$

WIZ029-030-035-036-043>047-271200-
CENTRAL WISCONSIN

CITY           SKY/WX    TMP DP  RH WIND       PRES   REMARKS
WAUSAU         LGT RAIN  33  32  96 N9        29.36F WCI  25
MOSINEE        LGT RAIN  34  34 100 N10       29.38F WCI  26
MARSHFIELD     RAIN      33  31  92 N9        29.38F FOG     WCI  25
STEVENS POINT  RAIN      35  35 100 NW5       29.38S WCI  31
WAUPACA        RAIN      42  41  93 NW12      29.34F
WAUTOMA        LGT RAIN  39  38  96 NW9       29.36F WCI  33
WISC RAPIDS    LGT RAIN  37  35  92 N8        29.39F WCI  31
CAMP DOUGLAS   RAIN      36  36 100 NW10      29.41R WCI  28
$$

WIZ011>013-019>022-031-037>040-048>050-271200-
NORTHEAST WISCONSIN

CITY           SKY/WX    TMP DP  RH WIND       PRES   REMARKS
ANTIGO         MIX PCPN  33  32  98 N10       29.36F WCI  24
SHAWANO        RAIN      41  38  90 N8        29.35F
OCONTO         CLOUDY    39  38  95 N6        29.32F
STURGEON BAY   RAIN      42  41  96 N13       29.31F
GREEN BAY      LGT RAIN  44  43  96 N14       29.30F
MANITOWOC      CLOUDY    48  46  93 VRB7      29.29F
APPLETON       LGT RAIN  45  45 100 NW10      29.30F
CLINTONVILLE   RAIN      39  39 100 N7        29.34F WCI  34
OSHKOSH        RAIN      44  42  93 NW13      29.32S FOG
$$

WIZ032>034-041-042-053>061-271200-
SOUTHWEST WISCONSIN

CITY           SKY/WX    TMP DP  RH WIND       PRES   REMARKS
LA CROSSE      CLOUDY    38  34  85 N14       29.45S WCI  30
SPARTA         LGT RAIN  35  34  96 NW7       29.45R WCI  29
VIROQUA        CLOUDY    33  33 100 NW8       29.42S WCI  27
BOSCOBEL       LGT RAIN  39  36  89 NW9       29.44S WCI  33
PRAIRIE DU CHI RAIN      36  35  96 W9        29.46S WCI  29
PLATTEVILLE    CLOUDY    38  38 100 W12       29.42F WCI  30
$$

WIZ056-057-062-063-064-067-068-271200-
SOUTH CENTRAL WISCONSIN

CITY           SKY/WX    TMP DP  RH WIND       PRES   REMARKS
REEDSBURG      RAIN      38  38 100 NW5       29.39S WCI  35
BARABOO/DELLS  RAIN      38  37  97 NW6       29.37F WCI  34
LONE ROCK      RAIN      40  37  89 NW12      29.41S FOG     WCI  33
MINERAL POINT  RAIN      41  41 100 NW13      29.39F
MADISON        RAIN      41  39  93 NW7       29.35F FOG
MIDDLETON      CLOUDY    42  40  95 NW8       29.36F
WATERTOWN      LGT RAIN  43  43 100 NW10G16   29.32F
MONROE         LGT RAIN  41  39  93 NW14      29.36S
JANESVILLE     LGT RAIN  43  43 100 NW10      29.33S
$$

WIZ051-052-058>065-066-070>072-271200-
SOUTHEAST WISCONSIN

CITY           SKY/WX    TMP DP  RH WIND       PRES   REMARKS
MILWAUKEE      RAIN      58  56  93 SW14      29.26F
WAUKESHA       RAIN      46  45  93 NW12      29.30F
MILWAUKEE/TIMM HVY RAIN  48  46  93 NW7       29.28F
RACINE         LGT RAIN  52  51  97 S13       29.28F
KENOSHA        RAIN      58  55  90 SW15G24   29.26F FOG
FOND DU LAC    HVY RAIN  44  40  85 NW12      29.31F FOG
SHEBOYGAN      LGT RAIN  49  47  93 N3        29.28F FOG
WEST BEND      RAIN      45  45 100 NW12      29.30S
JUNEAU         RAIN      41  40  96 NW8       29.34F
$$

LSZ147-162-271200-
LAKE SUPERIOR

STATION/POSITION TIME  TEMP    WIND        PRES    WAVE
                       AIR SEA DIR/SP/G            HT/PER
                 (UTC) (F)     (DEG/KT/KT) (MB)    (FT/S)
DEVILS ISLAND    1000   27      30/  8/  9 1002.0S
PORT WING        1040   28     350/  9/ 12 1001.4F
SAXON HARBOR     1040   30      20/ 12/ 16 1000.0F
$$

LMZ867-665-643>646-271200-
LAKE MICHIGAN

STATION/POSITION TIME  TEMP    WIND        PRES    WAVE
                       AIR SEA DIR/SP/G            HT/PER
                 (UTC) (F)     (DEG/KT/KT) (MB)    (FT/S)
CHAMBERS ISLAND  1040   41     350/ 10/ 13  993.2F
N MID LAKE BUOY  0950   39 37   40/ 10/ 12  994.6F   1/ 4
NORTHPORT PIER   1040   38     330/ 14/ 16  993.2F
SISTER BAY       0936   39      10/  9/ 13   N/A
KEWAUNEE LAKESHO 1030   45     330/  6/ 10  992.2F
SHEBOYGAN LAKESH 1000   50     360/  6/  7  991.6F
PORT WASHINGTON  1030   47      30/  4/  6  992.9F
MILWAUKEE LAKESH 1030   50     150/ 13/ 14   N/A
S MID LAKE BUOY  0950   48 42  120/ 12/ 14  993.5F   1
KENOSHA   LAKESH 1000   49     170/ 14/ 19  992.2
$$

TC  - TEMPERATURE IN CELSIUS
VSB - VISIBILITY IN STATUTE MILES
WCI - WIND CHILL INDEX
HX  - HEAT INDEX




USA.gov is the U.S. government's official web portal to all federal, state and local government web resources and services.